Current Version              Previous Version:    01  02  03  04  05  06  07  08  09  10  11  12  13  14  15  16  17  18  19  20  21  22  23  24  25  26  27  28  29  30  
   31  32  33  34  35  36  37  38  39  40  41  42  43  44  45  46  47  48  49  50  51  52  53  54  55  56  57  58  59  60  

[Printable]
553
ASUS44 KLUB 300801
RWRTX
WEST TEXAS WEATHER ROUNDUP
NATIONAL WEATHER SERVICE LUBBOCK TX
300 AM CDT WED JUL 30 2014

NOTE: "FAIR" INDICATES FEW OR NO CLOUDS BELOW 12,000 FEET WITH NO
SIGNIFICANT WEATHER AND/OR OBSTRUCTIONS TO VISIBILITY.

TXZ004-006>008-010-012-014-016-OKZ002-300900-
TEXAS PANHANDLE/OKLAHOMA PANHANDLE

CITY           SKY/WX    TMP DP  RH WIND       PRES   REMARKS
AMARILLO       CLOUDY    67  62  84 SE14      30.10F
BORGER         CLOUDY    70  62  76 S8        30.08F
CANADIAN       CLOUDY    70  66  88 S8        30.05F
DALHART        MOCLDY    68  64  87 S10       30.10F
DUMAS          MOCLDY    66  61  84 S8        30.10F
GUYMON         LGT RAIN  69  64  84 S10       30.04F
HEREFORD       RAIN      68  67  95 S9        30.11F
PAMPA          CLOUDY    67  61  82 S16       30.09F
PERRYTON       CLOUDY    68  63  83 S12       30.05F
$$

TXZ026-029-035-045-048-300900-
SOUTHERN PANHANDLE/SOUTH PLAINS/ROLLING PLAINS

CITY           SKY/WX    TMP DP  RH WIND       PRES   REMARKS
CHILDRESS      LGT RAIN  69  67  93 E6        30.07F
SEMINOLE       PTCLDY    70  64  79 CALM      30.10S
LUBBOCK        CLOUDY    71  65  81 S9        30.09F
PLAINVIEW      LGT RAIN  70  65  84 S6        30.08F
SNYDER         CLEAR     73  66  79 S10       30.05F
$$

TXZ052-054-060>062-072-078-127-140-154-169-300900-
PERMIAN BASIN/CONCHO VALLEY/BIG COUNTRY/EDWARDS PLATEAU

CITY           SKY/WX    TMP DP  RH WIND       PRES   REMARKS
ABILENE        PTCLDY    75  67  76 S14       30.04F
BIG SPRING     PTCLDY    79  66  64 SE10      30.07S
BRADY          CLEAR     77  66  69 SE10      30.05S
BROWNWOOD      CLOUDY    77  68  73 SE9G16    30.05F
JUNCTION       CLEAR     78  68  71 SE5       30.06F
MIDLAND        PTCLDY    78  57  48 SE9       30.06R
ODESSA           N/A     78  51  38 S7        30.07R
SAN ANGELO     MOCLDY    78  67  68 SE9       30.03F
SONORA         CLEAR     79  55  44 S7        30.09F
SWEETWATER     PTCLDY    75  66  75 SE15      30.08S
WINK           PTCLDY    83  52  34 SE13      30.02S
$$

TXZ055-058-074-075-080-082-300900-
FAR WEST/SOUTHWEST MOUNTAINS/TRANS PECOS

CITY           SKY/WX    TMP DP  RH WIND       PRES   REMARKS
ALPINE         CLEAR     76  48  37 S13       30.20F
DRYDEN           N/A     86  52  30 SE10      30.02F
EL PASO        PTCLDY    76  68  76 E3        30.08F
FORT STOCKTON  CLEAR     80  52  37 S14G24    30.04F
GUADALUPE PASS MOCLDY    74  51  44 NE12      30.21F
MARFA          CLEAR     70  48  46 S3        30.21F
PRESIDIO       FAIR      85  49  29 NE6       30.02F
$$

TXZ014-016-019-021>030-083-300900
TEXAS TECH WEST TEXAS MESONET/TEXAS PANHANDLE/NORTHERN SOUTH PLAINS

CITY           SKY/WX    TMP DP  RH WIND       PRES   REMARKS
ABERNATHY 5ENE   N/A     69  64  84 S7        30.11F
AMARILLO 9NNE    N/A     69  62  78 SE1       30.09F
AMARILLO 7SSE    N/A     69  61  75 S9        30.12F
AMHERST 1NE      N/A     70  65  84 S12       30.10F
BOOTLEG 11WNW    N/A     65  63  93 NE9       30.17R
CANADIAN 6E      N/A     68  65  93 SE10      30.05F
CAPROCK CYN SP   N/A     68  65  93 S5        30.07F
CHILDRESS 2NNE   N/A     68  66  95 E5        30.07F
CLARENDON 2WSW LGT RAIN  67  63  86 SE9       30.10S
DIMMITT 2NE    RAIN      66  64  91 W8        30.15R
FLOYDADA 2NNE    N/A     70  64  79 SE8       30.09F
FRIONA 2NE       N/A     67  63  88 SE9       30.14F
GOODLETT 3W    LGT RAIN  69  66  90 NE6       30.05S
HART 3N          N/A     68  64  89 SE5       30.10F
HEREFORD 2NW   LGT RAIN  66  63  88 S12       30.12F
MCLEAN 1E        N/A     66  64  94 SE8       30.08F
MEMPHIS 1NE      N/A     69  67  92 E7        30.05F
MULESHOE 2SSW    N/A     69  64  83 S12       30.10F
OLTON 6S         N/A     68  64  86 SE10      30.10F
PALO DURO SP     N/A     68  62  81 S6        30.13S
PAMPA 2E         N/A     65  63  91 SE13      30.09F
PLAINVIEW 1S     N/A     71  65  82 S7        30.09F
SILVERTON 7ESE   N/A     69  64  84 SE7       30.09F
TULIA 2ENE       N/A     69  64  83 S6        30.10F
TURKEY 2WSW      N/A     69  65  89 E8        30.06F
UMBARGER 3NNE    N/A     67  64  89 S9        30.13F
$$

TXZ033>036-039>041-045>048-300900
TEXAS TECH WEST TEXAS MESONET/SOUTH PLAINS

CITY           SKY/WX    TMP DP  RH WIND       PRES   REMARKS
AIKEN 3WSW       N/A     70  65  85 SE7       30.10F
ANDREWS 2NE      N/A     73  62  69 SE3       30.08
ANTON 6SSW       N/A     69  65  87 SE10      30.10F
BROWNFIELD 2S    N/A     70  63  79 SE2       30.10F
DENVR CTY 7WNW   N/A     67  61  80 SE3       30.11S
GAIL 2ESE        N/A     71  65  79 SE6       30.04F
LAMESA 2SE       N/A     72  64  76 SE6       30.07F
LEVELLAND 4S     N/A     69  65  86 SE7       30.10F
LUBBOCK 3WNW     N/A     72  63  72 SE8       30.10S
MORTON 1ENE      N/A     69  65  88 SE9       30.11F
ODONNELL 1N      N/A     70  63  79 SE5       30.07F
PLAINS 3N        N/A     69  64  85 E5        30.11F
RALLS 1SE        N/A     71  64  79 SE6       30.09F
REESE CENTER     N/A     70  64  82 SE10      30.10F
SEAGRAVES 1SW    N/A     69  64  83 SE1       30.09F
SEMINOLE 2NNE    N/A     69  63  80 SE3       30.09S
SLATON 2NE       N/A     70  63  80 S7        30.09F
SNYDER 3E        N/A     73  65  77 S12       30.05S
SUNDOWN 8SW      N/A     69  65  87 SE5       30.11F
TAHOKA 3NNE      N/A     70  63  77 SE9       30.08S
WOLFFORTH 6SSW   N/A     71  64  81 S6        30.10F
$$

TXZ031-032-036>038-042>044-300900-
TEXAS TECH WEST TEXAS MESONET/ROLLING PLAINS

CITY           SKY/WX    TMP DP  RH WIND       PRES   REMARKS
ASPERMONT 3NE    N/A     73  64  75 SE3       30.02F
FLUVANNA 3WNW    N/A     72  64  76 SE14      30.05F
GRAHAM 5SSW      N/A     71  64  79 SE12      30.06F
GUTHRIE 10WSW    N/A     75  62  65 SE7       30.03F
HASKELL 1NW      N/A     78  56  47 SE7       30.02S
JAYTON 1SSE      N/A     72  65  77 E3        30.04F
KNOX CITY 3NW    N/A     76  62  61 SE1       30.02S
LK A HENRY 1NW   N/A     72  66  83 E2        30.04F
NORTHFIELD 1S  LGT RAIN  69  66  90 E7        30.05F
ODELL 4ENE       N/A     69  68  94 SE9       30.06F
PADUCAH 10SW     N/A     71  66  83 NE5       30.06R
POST 1NE         N/A     73  63  70 SE7       30.05F
RRING SPRGS 3N   N/A     73  65  78 SE3       30.08S
SEYMOUR 3NW      N/A     73  64  73 SE7       30.02R
SPUR 1W          N/A     73  64  73 SE2       30.04F
WEINERT 2NNE     N/A     73  65  76 SE5       30.02F
WHITE RVR 6NE    N/A     72  64  76 SE5       30.06F
$$

TXZ052-054-060>062-072-078-127-140-154-169-300900-
TEXAS TECH WEST TEXAS MESONET/PERMIAN BASIN/
CONCHO VALLEY/BIG COUNTRY/EDWARDS PLATEAU

CITY           SKY/WX    TMP DP  RH WIND       PRES   REMARKS
COYANOSA 2N      N/A     83  53  34 SE15      30.01F
JUNCTION 1SSW    N/A     78  68  71 SE2       30.06F
MERTZON 3NNE     N/A     76  66  72 S2        30.05F
SAN ANGELO 7NW   N/A     78  65  65 SE8       30.04F
STRLNG CT 4WSW   N/A     76  66  70 SE7       30.06F
ST LAWRNCE 5SW   N/A     75  60  60 SE8       30.06S
SWEETWATR 11SW   N/A     74  65  75 SE14      30.07S
WALL 1E          N/A     78  65  65 SE14      30.04F
$$

TXZ055-058-074-075-080-082-300900-
TEXAS TECH WEST TEXAS MESONET/FAR WEST/SOUTHWEST MOUNTAINS/TRANS PECOS

CITY           SKY/WX    TMP DP  RH WIND       PRES   REMARKS
PRSMN GAP BBNP   N/A     85  51  30 E8        30.05F
GUADLPE MTN NP   N/A     74  49  41 NE2       30.23S
$$